| time (UTC) | temp F | wind direction | speed MPH | gust MPH | rain 1hr in | rain 24hr in | rain mn in | humidity % | barometer mb |
| 20260505075040 | 62 | 0 | 0.0 | 3.0 | 0.00 | 0.00 | 0.00 | 34 | 1021.2 |
| 20260505074550 | 63 | 0 | 1.0 | 3.0 | 0.00 | 0.00 | 0.00 | 32 | 1021.2 |
| 20260505074040 | 64 | 240 | 0.0 | 4.0 | 0.00 | 0.00 | 0.00 | 32 | 1021.2 |
| 20260505073540 | 64 | 227 | 1.0 | 6.0 | 0.00 | 0.00 | 0.00 | 31 | 1021.2 |
| 20260505073049 | 65 | 225 | 2.0 | 6.0 | 0.00 | 0.00 | 0.00 | 31 | 1021.2 |
| 20260505072540 | 65 | 229 | 3.0 | 6.0 | 0.00 | 0.00 | 0.00 | 30 | 1021.2 |
| 20260505072039 | 65 | 194 | 2.0 | 6.0 | 0.00 | 0.00 | 0.00 | 30 | 1021.2 |
| 20260505071552 | 65 | 184 | 2.0 | 5.0 | 0.00 | 0.00 | 0.00 | 30 | 1021.2 |
| 20260505071039 | 65 | 238 | 2.0 | 6.0 | 0.00 | 0.00 | 0.00 | 30 | 1021.2 |
| 20260505070540 | 66 | 0 | 1.0 | 6.0 | 0.00 | 0.00 | 0.00 | 30 | 1021.2 |
| 20260505070057 | 65 | 0 | 2.0 | 6.0 | 0.00 | 0.00 | 0.00 | 30 | 1021.2 |
| 20260505065539 | 65 | 227 | 2.0 | 6.0 | 0.00 | 0.00 | 0.00 | 30 | 1021.2 |
| 20260505065038 | 65 | 271 | 0.0 | 5.0 | 0.00 | 0.00 | 0.00 | 31 | 1021.2 |
| 20260505064550 | 65 | 198 | 1.0 | 6.0 | 0.00 | 0.00 | 0.00 | 31 | 1021.2 |
| 20260505064039 | 65 | 219 | 0.0 | 6.0 | 0.00 | 0.00 | 0.00 | 31 | 1021.2 |
| 20260505063538 | 65 | 211 | 2.0 | 5.0 | 0.00 | 0.00 | 0.00 | 31 | 1021.2 |
| 20260505063050 | 64 | 0 | 1.0 | 3.0 | 0.00 | 0.00 | 0.00 | 32 | 1021.2 |
| 20260505062539 | 64 | 0 | 1.0 | 4.0 | 0.00 | 0.00 | 0.00 | 33 | 1021.2 |
| 20260505062038 | 63 | 0 | 0.0 | 4.0 | 0.00 | 0.00 | 0.00 | 33 | 1021.2 |
| 20260505061546 | 62 | 212 | 0.0 | 2.0 | 0.00 | 0.00 | 0.00 | 34 | 1021.2 |
| 20260505061037 | 61 | 0 | 0.0 | 2.0 | 0.00 | 0.00 | 0.00 | 36 | 1021.2 |
| 20260505060538 | 60 | 0 | 0.0 | 4.0 | 0.00 | 0.00 | 0.00 | 39 | 1021.2 |
| 20260505060050 | 57 | 0 | 0.0 | 4.0 | 0.00 | 0.00 | 0.00 | 42 | 1021.2 |
| 20260505055538 | 56 | 0 | 0.0 | 4.0 | 0.00 | 0.00 | 0.00 | 44 | 1021.2 |
| 20260505055040 | 55 | 0 | 0.0 | 0.0 | 0.00 | 0.00 | 0.00 | 47 | 1021.2 |
| 20260505054552 | 56 | 0 | 0.0 | 0.0 | 0.00 | 0.00 | 0.00 | 47 | 1021.2 |
| 20260505054039 | 56 | 0 | 0.0 | 0.0 | 0.00 | 0.00 | 0.00 | 45 | 1021.2 |
| 20260505053538 | 57 | 0 | 0.0 | 0.0 | 0.00 | 0.00 | 0.00 | 44 | 1021.2 |
| 20260505053051 | 58 | 0 | 0.0 | 0.0 | 0.00 | 0.00 | 0.00 | 42 | 1021.2 |
| 20260505052539 | 59 | 0 | 0.0 | 0.0 | 0.00 | 0.00 | 0.00 | 41 | 1021.2 |
| 20260505052039 | 60 | 0 | 0.0 | 0.0 | 0.00 | 0.00 | 0.00 | 39 | 1021.2 |
| 20260505051549 | 61 | 0 | 0.0 | 0.0 | 0.00 | 0.00 | 0.00 | 38 | 1021.2 |
| 20260505051039 | 63 | 0 | 0.0 | 0.0 | 0.00 | 0.00 | 0.00 | 35 | 1021.2 |
| 20260505050538 | 65 | 0 | 0.0 | 2.0 | 0.00 | 0.00 | 0.00 | 33 | 1021.2 |
| 20260505041543 | 59 | 0 | 0.0 | 2.0 | 0.00 | 0.00 | 0.00 | 41 | 1021.2 |
| 20260505041038 | 58 | 0 | 0.0 | 1.0 | 0.00 | 0.00 | 0.00 | 44 | 1021.2 |
| 20260505040538 | 56 | 0 | 0.0 | 0.0 | 0.00 | 0.00 | 0.00 | 48 | 1021.2 |
| 20260505040052 | 56 | 0 | 0.0 | 0.0 | 0.00 | 0.00 | 0.00 | 49 | 1021.2 |
| 20260505035538 | 56 | 0 | 0.0 | 0.0 | 0.00 | 0.01 | 0.00 | 49 | 1021.2 |
| 20260505035036 | 57 | 0 | 0.0 | 0.0 | 0.00 | 0.01 | 0.00 | 48 | 1021.2 |
| 20260505034548 | 57 | 0 | 0.0 | 0.0 | 0.00 | 0.01 | 0.00 | 47 | 1021.2 |
| 20260505034039 | 57 | 0 | 0.0 | 0.0 | 0.00 | 0.01 | 0.00 | 46 | 1021.2 |
| 20260505033539 | 58 | 0 | 0.0 | 0.0 | 0.00 | 0.01 | 0.00 | 47 | 1021.2 |
| 20260505033052 | 58 | 0 | 0.0 | 0.0 | 0.00 | 0.01 | 0.00 | 45 | 1021.2 |
| 20260505032540 | 58 | 0 | 0.0 | 0.0 | 0.00 | 0.01 | 0.00 | 44 | 1021.2 |
| 20260505032038 | 59 | 0 | 0.0 | 0.0 | 0.00 | 0.01 | 0.00 | 45 | 1021.2 |
| 20260505031555 | 59 | 0 | 0.0 | 0.0 | 0.00 | 0.01 | 0.00 | 43 | 1021.2 |
| 20260505031038 | 60 | 0 | 0.0 | 0.0 | 0.00 | 0.01 | 0.00 | 42 | 1021.2 |
| 20260505030540 | 61 | 0 | 0.0 | 0.0 | 0.00 | 0.01 | 0.00 | 40 | 1021.2 |
| 20260505030052 | 62 | 0 | 0.0 | 0.0 | 0.00 | 0.01 | 0.00 | 39 | 1021.2 |
| 20260505025538 | 63 | 0 | 0.0 | 0.0 | 0.00 | 0.01 | 0.00 | 39 | 1021.2 |
| 20260505025039 | 64 | 0 | 0.0 | 0.0 | 0.00 | 0.01 | 0.00 | 35 | 1021.2 |
| 20260505024541 | 65 | 0 | 0.0 | 0.0 | 0.00 | 0.01 | 0.00 | 32 | 1021.2 |
| 20260505024040 | 66 | 0 | 0.0 | 1.0 | 0.00 | 0.01 | 0.00 | 32 | 1021.2 |
| 20260505023540 | 67 | 0 | 0.0 | 2.0 | 0.00 | 0.01 | 0.00 | 30 | 1021.2 |
| 20260505023050 | 67 | 0 | 0.0 | 2.0 | 0.00 | 0.01 | 0.00 | 29 | 1021.2 |
| 20260505022540 | 68 | 0 | 0.0 | 5.0 | 0.00 | 0.01 | 0.00 | 28 | 1021.2 |
| 20260505022040 | 69 | 0 | 0.0 | 5.0 | 0.00 | 0.01 | 0.00 | 27 | 1021.2 |
| 20260505021547 | 69 | 0 | 1.0 | 5.0 | 0.00 | 0.01 | 0.00 | 27 | 1021.2 |
| 20260505021038 | 69 | 0 | 0.0 | 5.0 | 0.00 | 0.01 | 0.00 | 27 | 1021.2 |
| 20260505020538 | 70 | 0 | 0.0 | 5.0 | 0.00 | 0.01 | 0.00 | 26 | 1021.2 |
| 20260505020049 | 70 | 0 | 1.0 | 5.0 | 0.00 | 0.01 | 0.00 | 27 | 1021.2 |
| 20260505015538 | 70 | 165 | 0.0 | 8.0 | 0.00 | 0.01 | 0.00 | 26 | 1021.2 |
| 20260505015039 | 70 | 0 | 0.0 | 8.0 | 0.00 | 0.01 | 0.00 | 26 | 1021.2 |
| 20260505014551 | 70 | 251 | 2.0 | 7.0 | 0.00 | 0.01 | 0.00 | 26 | 1021.2 |
| 20260505014038 | 71 | 0 | 1.0 | 6.0 | 0.00 | 0.01 | 0.00 | 26 | 1021.2 |
| 20260505013538 | 71 | 219 | 2.0 | 6.0 | 0.00 | 0.01 | 0.00 | 25 | 1021.2 |
| 20260505013043 | 71 | 243 | 1.0 | 5.0 | 0.00 | 0.01 | 0.00 | 25 | 1021.2 |
| 20260505012538 | 71 | 0 | 0.0 | 4.0 | 0.00 | 0.01 | 0.00 | 26 | 1021.2 |
| 20260505012038 | 71 | 285 | 1.0 | 7.0 | 0.00 | 0.01 | 0.00 | 25 | 1021.2 |
| 20260505011552 | 72 | 0 | 1.0 | 7.0 | 0.00 | 0.01 | 0.00 | 25 | 1021.2 |
| 20260505011040 | 72 | 213 | 2.0 | 9.0 | 0.00 | 0.01 | 0.00 | 24 | 1021.2 |
| 20260505010539 | 72 | 0 | 0.0 | 9.0 | 0.00 | 0.01 | 0.00 | 25 | 1021.2 |
| 20260505010109 | 72 | 259 | 2.0 | 11.0 | 0.00 | 0.01 | 0.00 | 25 | 1021.2 |
| 20260505005543 | 72 | 254 | 5.0 | 11.0 | 0.00 | 0.01 | 0.00 | 24 | 1021.2 |
| 20260505005038 | 73 | 268 | 4.0 | 8.0 | 0.00 | 0.01 | 0.00 | 24 | 1021.2 |
| 20260505004548 | 73 | 238 | 2.0 | 8.0 | 0.00 | 0.01 | 0.00 | 24 | 1021.2 |
| 20260505004039 | 73 | 228 | 2.0 | 9.0 | 0.00 | 0.01 | 0.00 | 24 | 1021.2 |
| 20260505003539 | 73 | 271 | 2.0 | 12.0 | 0.00 | 0.01 | 0.00 | 24 | 1021.2 |
| 20260505003048 | 73 | 0 | 2.0 | 13.0 | 0.00 | 0.01 | 0.00 | 24 | 1021.2 |
| 20260505002538 | 73 | 216 | 5.0 | 13.0 | 0.00 | 0.01 | 0.00 | 24 | 1021.2 |
| 20260505002035 | 74 | 248 | 4.0 | 13.0 | 0.00 | 0.01 | 0.00 | 24 | 1021.2 |
| 20260505001546 | 74 | 276 | 4.0 | 13.0 | 0.00 | 0.01 | 0.00 | 23 | 1021.2 |
| 20260505001038 | 74 | 262 | 2.0 | 13.0 | 0.00 | 0.01 | 0.00 | 23 | 1021.2 |
| 20260505000538 | 74 | 233 | 1.0 | 9.0 | 0.00 | 0.01 | 0.00 | 23 | 1021.2 |
| 20260505000052 | 74 | 255 | 0.0 | 9.0 | 0.00 | 0.01 | 0.00 | 23 | 1021.2 |
| 20260504235538 | 74 | 0 | 2.0 | 9.0 | 0.00 | 0.01 | 0.00 | 23 | 1021.2 |
| 20260504235041 | 74 | 0 | 2.0 | 12.0 | 0.00 | 0.01 | 0.00 | 22 | 1021.2 |
| 20260504234551 | 75 | 0 | 4.0 | 12.0 | 0.00 | 0.01 | 0.00 | 22 | 1021.2 |
| 20260504234037 | 76 | 284 | 2.0 | 15.0 | 0.00 | 0.01 | 0.00 | 21 | 1021.2 |
| 20260504233538 | 75 | 336 | 3.0 | 15.0 | 0.00 | 0.01 | 0.00 | 22 | 1021.2 |
| 20260504233055 | 75 | 288 | 4.0 | 15.0 | 0.00 | 0.01 | 0.00 | 21 | 1021.2 |
| 20260504232538 | 76 | 286 | 4.0 | 15.0 | 0.00 | 0.01 | 0.00 | 21 | 1021.2 |
| 20260504232038 | 76 | 200 | 5.0 | 12.0 | 0.00 | 0.01 | 0.00 | 20 | 1021.2 |
| 20260504231548 | 76 | 228 | 4.0 | 11.0 | 0.00 | 0.01 | 0.00 | 21 | 1021.2 |
| 20260504231038 | 76 | 290 | 3.0 | 10.0 | 0.00 | 0.01 | 0.00 | 21 | 1021.2 |
| 20260504230542 | 75 | 0 | 3.0 | 11.0 | 0.00 | 0.01 | 0.00 | 21 | 1021.2 |
| 20260504230049 | 76 | 177 | 4.0 | 14.0 | 0.00 | 0.01 | 0.00 | 20 | 1021.2 |
| 20260504225539 | 76 | 307 | 4.0 | 15.0 | 0.00 | 0.01 | 0.00 | 20 | 1021.2 |
| 20260504225038 | 77 | 267 | 4.0 | 15.0 | 0.00 | 0.01 | 0.00 | 19 | 1021.2 |
| 20260504224544 | 77 | 265 | 6.0 | 14.0 | 0.00 | 0.01 | 0.00 | 19 | 1021.2 |
| 20260504224038 | 77 | 203 | 6.0 | 17.0 | 0.00 | 0.01 | 0.00 | 20 | 1021.2 |
| 20260504223541 | 77 | 264 | 1.0 | 17.0 | 0.00 | 0.01 | 0.00 | 21 | 1021.2 |
| 20260504223100 | 76 | 226 | 6.0 | 17.0 | 0.00 | 0.01 | 0.00 | 21 | 1021.2 |
| 20260504222538 | 76 | 225 | 4.0 | 12.0 | 0.00 | 0.01 | 0.00 | 23 | 1021.2 |
| 20260504222037 | 76 | 281 | 4.0 | 12.0 | 0.00 | 0.01 | 0.00 | 24 | 1021.2 |
| 20260504221602 | 76 | 262 | 4.0 | 14.0 | 0.00 | 0.01 | 0.00 | 22 | 1021.2 |
| 20260504221038 | 77 | 9 | 4.0 | 17.0 | 0.00 | 0.01 | 0.00 | 22 | 1021.2 |
| 20260504220538 | 77 | 326 | 2.0 | 17.0 | 0.00 | 0.01 | 0.00 | 22 | 1021.2 |
| 20260504220051 | 78 | 208 | 2.0 | 18.0 | 0.00 | 0.01 | 0.00 | 23 | 1021.2 |
| 20260504215538 | 78 | 178 | 0.0 | 18.0 | 0.00 | 0.01 | 0.00 | 24 | 1021.2 |
| 20260504215037 | 77 | 292 | 5.0 | 18.0 | 0.00 | 0.01 | 0.00 | 24 | 1021.2 |
| 20260504214600 | 77 | 210 | 4.0 | 12.0 | 0.00 | 0.01 | 0.00 | 25 | 1021.2 |
| 20260504214038 | 77 | 137 | 3.0 | 12.0 | 0.00 | 0.01 | 0.00 | 26 | 1021.2 |
| 20260504213538 | 77 | 264 | 2.0 | 12.0 | 0.00 | 0.01 | 0.00 | 24 | 1021.2 |
| 20260504213100 | 76 | 169 | 6.0 | 13.0 | 0.00 | 0.01 | 0.00 | 26 | 1021.2 |
| 20260504212539 | 75 | 230 | 4.0 | 14.0 | 0.00 | 0.01 | 0.00 | 26 | 1021.2 |
| 20260504212042 | 76 | 226 | 7.0 | 14.0 | 0.00 | 0.01 | 0.00 | 25 | 1021.2 |
| 20260504211551 | 78 | 176 | 4.0 | 13.0 | 0.00 | 0.01 | 0.00 | 24 | 1021.2 |
| 20260504211039 | 78 | 170 | 6.0 | 14.0 | 0.00 | 0.01 | 0.00 | 24 | 1021.2 |
| 20260504210540 | 77 | 282 | 7.0 | 14.0 | 0.00 | 0.01 | 0.00 | 25 | 1021.2 |
| 20260504210051 | 77 | 203 | 7.0 | 14.0 | 0.00 | 0.01 | 0.00 | 25 | 1021.2 |
| 20260504205542 | 77 | 213 | 7.0 | 14.0 | 0.00 | 0.01 | 0.00 | 25 | 1021.2 |
| 20260504205040 | 76 | 283 | 4.0 | 13.0 | 0.00 | 0.01 | 0.00 | 28 | 1021.2 |
| 20260504204550 | 77 | 226 | 5.0 | 13.0 | 0.00 | 0.01 | 0.00 | 28 | 1021.2 |
| 20260504204040 | 77 | 228 | 4.0 | 13.0 | 0.00 | 0.01 | 0.00 | 27 | 1021.2 |
| 20260504203540 | 77 | 209 | 7.0 | 13.0 | 0.00 | 0.01 | 0.00 | 27 | 1021.2 |
| 20260504203052 | 77 | 233 | 4.0 | 12.0 | 0.00 | 0.01 | 0.00 | 28 | 1021.2 |
| 20260504202540 | 77 | 245 | 6.0 | 13.0 | 0.00 | 0.01 | 0.00 | 27 | 1021.2 |
| 20260504202039 | 76 | 223 | 6.0 | 13.0 | 0.00 | 0.01 | 0.00 | 29 | 1021.2 |
| 20260504201547 | 75 | 0 | 5.0 | 12.0 | 0.00 | 0.01 | 0.00 | 31 | 1021.2 |
| 20260504201043 | 75 | 281 | 1.0 | 11.0 | 0.00 | 0.01 | 0.00 | 30 | 1021.2 |
| 20260504200540 | 75 | 217 | 2.0 | 11.0 | 0.00 | 0.01 | 0.00 | 30 | 1021.2 |
| 20260504200045 | 75 | 198 | 2.0 | 13.0 | 0.00 | 0.01 | 0.00 | 31 | 1021.2 |
| 20260504195540 | 76 | 1 | 3.0 | 15.0 | 0.00 | 0.01 | 0.00 | 29 | 1021.2 |
| 20260504195040 | 76 | 251 | 6.0 | 15.0 | 0.00 | 0.01 | 0.00 | 30 | 1021.2 |
| 20260504194556 | 77 | 0 | 4.0 | 10.0 | 0.00 | 0.01 | 0.00 | 28 | 1021.2 |
| 20260504194040 | 77 | 300 | 2.0 | 13.0 | 0.00 | 0.01 | 0.00 | 32 | 1021.2 |
| 20260504193542 | 76 | 353 | 6.0 | 13.0 | 0.00 | 0.01 | 0.00 | 30 | 1021.2 |
| 20260504193050 | 76 | 245 | 4.0 | 19.0 | 0.00 | 0.01 | 0.00 | 29 | 1021.2 |
| 20260504192540 | 77 | 308 | 5.0 | 19.0 | 0.00 | 0.01 | 0.00 | 30 | 1021.2 |
| 20260504192044 | 76 | 153 | 7.0 | 16.0 | 0.00 | 0.01 | 0.00 | 30 | 1021.2 |
| 20260504191550 | 76 | 264 | 2.0 | 8.0 | 0.00 | 0.01 | 0.00 | 30 | 1021.2 |
| 20260504191041 | 77 | 227 | 2.0 | 8.0 | 0.00 | 0.01 | 0.00 | 31 | 1021.2 |
| 20260504190540 | 77 | 248 | 4.0 | 8.0 | 0.00 | 0.01 | 0.00 | 30 | 1021.2 |
| 20260504190050 | 76 | 247 | 2.0 | 8.0 | 0.00 | 0.01 | 0.00 | 32 | 1021.2 |
| 20260504185540 | 75 | 272 | 0.0 | 8.0 | 0.00 | 0.01 | 0.00 | 33 | 1021.2 |
| 20260504185040 | 75 | 186 | 2.0 | 9.0 | 0.00 | 0.01 | 0.00 | 32 | 1021.2 |
| 20260504184550 | 75 | 252 | 2.0 | 10.0 | 0.00 | 0.01 | 0.00 | 33 | 1021.2 |
| 20260504184041 | 74 | 0 | 1.0 | 12.0 | 0.00 | 0.01 | 0.00 | 34 | 1021.2 |
| 20260504183540 | 74 | 238 | 5.0 | 12.0 | 0.00 | 0.01 | 0.00 | 33 | 1021.2 |
| 20260504183053 | 75 | 329 | 3.0 | 12.0 | 0.00 | 0.01 | 0.00 | 32 | 1021.2 |
| 20260504182540 | 75 | 226 | 2.0 | 8.0 | 0.00 | 0.01 | 0.00 | 33 | 1021.2 |
| 20260504182040 | 74 | 205 | 4.0 | 11.0 | 0.00 | 0.01 | 0.00 | 33 | 1021.2 |
| 20260504181548 | 74 | 274 | 3.0 | 11.0 | 0.00 | 0.01 | 0.00 | 32 | 1021.2 |
| 20260504181040 | 74 | 326 | 3.0 | 7.0 | 0.00 | 0.01 | 0.00 | 35 | 1021.2 |
| 20260504180540 | 74 | 0 | 3.0 | 7.0 | 0.00 | 0.01 | 0.00 | 33 | 1021.2 |
| 20260504180055 | 74 | 330 | 1.0 | 9.0 | 0.00 | 0.01 | 0.00 | 33 | 1021.2 |
| 20260504175540 | 74 | 0 | 2.0 | 9.0 | 0.00 | 0.01 | 0.00 | 34 | 1021.2 |
| 20260504175041 | 73 | 274 | 3.0 | 9.0 | 0.00 | 0.01 | 0.00 | 35 | 1021.2 |
| 20260504174550 | 73 | 0 | 1.0 | 9.0 | 0.00 | 0.01 | 0.00 | 35 | 1021.2 |
| 20260504174041 | 72 | 297 | 3.0 | 9.0 | 0.00 | 0.01 | 0.00 | 38 | 1021.2 |
| 20260504173540 | 72 | 0 | 2.0 | 8.0 | 0.00 | 0.01 | 0.00 | 36 | 1021.2 |
| 20260504173048 | 71 | 313 | 3.0 | 9.0 | 0.00 | 0.01 | 0.00 | 36 | 1021.2 |
| 20260504172539 | 72 | 266 | 1.0 | 9.0 | 0.00 | 0.01 | 0.00 | 36 | 1021.2 |
| 20260504172039 | 72 | 334 | 2.0 | 9.0 | 0.00 | 0.01 | 0.00 | 36 | 1021.2 |
| 20260504171549 | 72 | 0 | 0.0 | 5.0 | 0.00 | 0.01 | 0.00 | 38 | 1021.2 |
| 20260504171040 | 72 | 48 | 0.0 | 7.0 | 0.00 | 0.01 | 0.00 | 38 | 1021.2 |
| 20260504170542 | 72 | 0 | 0.0 | 9.0 | 0.00 | 0.01 | 0.00 | 40 | 1021.2 |
| 20260504151039 | 69 | 0 | 3.0 | 8.0 | 0.00 | 0.01 | 0.00 | 43 | 1021.2 |
| 20260504150539 | 70 | 285 | 4.0 | 8.0 | 0.00 | 0.01 | 0.00 | 44 | 1021.2 |
| 20260504141039 | 68 | 220 | 1.0 | 7.0 | 0.00 | 0.01 | 0.00 | 46 | 1021.2 |
| 20260504140539 | 68 | 0 | 2.0 | 7.0 | 0.00 | 0.01 | 0.00 | 48 | 1021.2 |
| 20260504130540 | 51 | 0 | 0.0 | 0.0 | 0.00 | 0.01 | 0.00 | 79 | 1021.2 |
| 20260504110538 | 50 | 0 | 0.0 | 0.0 | 0.00 | 0.01 | 0.00 | 76 | 1021.2 |
| 20260504100537 | 53 | 0 | 0.0 | 0.0 | 0.00 | 0.01 | 0.00 | 69 | 1021.2 |
| 20260504081552 | 54 | 217 | 0.0 | 6.0 | 0.00 | 0.01 | 0.00 | 68 | 1021.2 |
| 20260504081039 | 52 | 0 | 0.0 | 0.0 | 0.00 | 0.01 | 0.00 | 74 | 1021.2 |
| 20260504080538 | 52 | 0 | 0.0 | 0.0 | 0.00 | 0.01 | 0.00 | 73 | 1021.2 |